Norfolk, NE

1:09 PM CST on December 08, 2019 (GMT -0600)
Stefan Memorial

Weather History for KOFK - October, 2019

Change the Weather History Date:

Friday, October 18, 2019

  Actual Average Record
Temperature  
Mean Temperature 64 °F 50 °F  
Max Temperature 77 °F 63 °F 89 °F (2005)
Min Temperature 50 °F 38 °F 18 °F (1972)
Degree Days  
Heating Degree Days 1 15  
Month to date heating degree days 267 213  
Since 1 July heating degree days 297 355  
Cooling Degree Days 0 0  
Month to date cooling degree days 0 8  
Year to date cooling degree days 949 914  
Growing Degree Days 12 (Base 50)    
Moisture  
Dew Point 42 °F    
Average Humidity 50    
Maximum Humidity 71    
Minimum Humidity 29    
Precipitation  
Precipitation T in 0.07 in 1.62 in (1904)
Month to date precipitation 1.66 1.36  
Year to date precipitation 23.69 24.58  
Snow  
Snow 0.00 in 0.00 in - ()
Month to date snowfall T 0.2  
Since 1 July snowfall T 0.2  
Since 1 September snowfall T 0.2  
Snow Depth 0.00 in    
Sea Level Pressure  
Sea Level Pressure 29.55 in    
Wind  
Wind Speed 15 mph (SSW)    
Max Wind Speed 30 mph    
Max Gust Speed 42 mph    
Visibility 10 miles    
Events Rain    
T = Trace of Precipitation, MM = Missing Value Source: NWS Daily Summary

Daily Weather History Graph

Daily Weather History Graph

Search for Another Location

Airport or City:

Astronomy

Oct. 18, 2019 Rise Set
Actual Time 7:45 AM CDT 6:43 PM CDT
Civil Twilight 7:17 AM CDT 7:11 PM CDT
Nautical Twilight 6:44 AM CDT 7:44 PM CDT
Astronomical Twilight 6:12 AM CDT 8:16 PM CDT
Moon 9:57 PM CDT (10/18) 12:23 PM CDT (10/18)
Length of Visible Light 11h 54m
Length of Day
10h 58m
Waning Gibbous, 78% of the Moon is Illuminated
Oct 18
Waning Gibbous
Oct 21
Last Quarter
Oct 27
New
Nov 4
First Quarter
Nov 12
Full

Hourly Weather History & Observations

Time (CDT) Temp. Dew Point Humidity Pressure Visibility Wind Dir Wind Speed Gust Speed Precip Events Conditions
12:56 AM 53.1 °F 43.0 °F 69% 29.66 in 10.0 mi SE 11.5 mph - N/A   Clear
1:56 AM 51.1 °F 43.0 °F 74% 29.64 in 10.0 mi SE 11.5 mph - N/A   Clear
2:56 AM 51.1 °F 43.0 °F 74% 29.62 in 10.0 mi SE 13.8 mph - N/A   Clear
3:56 AM 52.0 °F 42.1 °F 69% 29.59 in 10.0 mi SSE 15.0 mph - N/A   Clear
4:56 AM 52.0 °F 42.1 °F 69% 29.57 in 10.0 mi SSE 16.1 mph - N/A   Clear
5:56 AM 52.0 °F 41.0 °F 66% 29.55 in 10.0 mi SSE 17.3 mph - N/A   Clear
7:56 AM 52.0 °F 42.1 °F 69% 29.53 in 10.0 mi SSE 16.1 mph - N/A   Clear
8:56 AM 54.0 °F 42.1 °F 64% 29.51 in 10.0 mi SE 15.0 mph - N/A   Clear
9:56 AM 60.1 °F 43.0 °F 53% 29.49 in 10.0 mi SSE 18.4 mph 34.5 mph N/A   Clear
10:56 AM 64.0 °F 43.0 °F 46% 29.48 in 10.0 mi South 23.0 mph 42.6 mph N/A   Clear
11:56 AM 66.9 °F 43.0 °F 42% 29.44 in 10.0 mi South 20.7 mph 36.8 mph N/A   Clear
12:56 PM 70.0 °F 43.0 °F 38% 29.44 in 10.0 mi South 24.2 mph 33.4 mph N/A   Clear
1:56 PM 73.9 °F 44.1 °F 34% 29.43 in 10.0 mi South 19.6 mph 35.7 mph N/A   Clear
2:56 PM 75.9 °F 42.1 °F 30% 29.42 in 10.0 mi SSW 21.9 mph 33.4 mph N/A   Clear
3:56 PM 75.9 °F 41.0 °F 29% 29.44 in 10.0 mi WSW 17.3 mph 25.3 mph N/A   Clear
4:56 PM 73.9 °F 39.0 °F 28% 29.47 in 10.0 mi West 13.8 mph - N/A   Clear
5:56 PM 66.9 °F 42.1 °F 40% 29.52 in 10.0 mi WNW 16.1 mph 26.5 mph 0.00 in Rain Light Rain
6:56 PM 63.0 °F 42.1 °F 46% 29.57 in 10.0 mi NW 15.0 mph - 0.00 in   Clear
7:56 PM 59.0 °F 42.1 °F 53% 29.62 in 10.0 mi NW 11.5 mph - N/A   Clear
8:56 PM 55.0 °F 41.0 °F 59% 29.64 in 10.0 mi WNW 5.8 mph - N/A   Clear
9:56 PM 55.0 °F 39.9 °F 57% 29.65 in 10.0 mi WNW 3.5 mph - N/A   Clear
10:56 PM 54.0 °F 39.0 °F 57% 29.69 in 10.0 mi WNW 8.1 mph - N/A   Scattered Clouds
11:56 PM 55.9 °F 37.0 °F 49% 29.70 in 10.0 mi WNW 9.2 mph - N/A   Mostly Cloudy